COSMOS 2251 DEB, 35660

Orbit data source: Space-Track

COSMOS 2251 DEB, 35660 is space debris in LEO originally from a launch on Wed, 16 Jun 1993 UTC launched from the Plesetsk Missile And Space Complex (PKMTR). The debris from Iridium 33, an American commercial communications satellite, has been tracked extensively since its accidental collision with the defunct Russian satellite Cosmos 2251 in 2009. This event, occurring at high speed in low Earth orbit (LEO), generated thousands of pieces of space debris, significantly increasing the risk of further collisions. The Iridium 33 debris cloud has impacted space traffic management and orbital debris mitigation strategies, making it a subject of ongoing study in space situational awareness.

Loading next visibility...
Identifier
35660, 1993-036APB
Orbit
LEO
Country
Flag of CISCIS
Related business
Manufacturer
Unknown
Mission
Spacecraft
Bus & Motor
Unknown
Mass
Unknown
Launch date (UTC)
1993-06-16 (33 years ago)
Launch vehicle
Unknown
Launch site
Plesetsk Missile And Space Complex (PKMTR)
Object type
Payload
Rocket body
Debris
Shape & HBR
Unknown shape, 0.1 m
Radar Cross Section
Small (<0.1 m²)

Expand to show TLE details & history
Last TLE update: 2 days ago

TLE from 2 days ago
0 COSMOS 2251 DEB
1 35660U 93036APB 26121.57735715  .00001245  00000-0  32523-3 0  9993
2 35660  74.0400 230.6230 0017992 341.8872  37.6330 14.50408767678986
Epoch: 2026-05-01T13:51Z
TLE epoch observation values (Epoch: 2026-05-01T13:51:23.657Z)
Latitude
18.86315°
Longitude
168.84399°
Altitude
716.324 km
Speed
7.504 km/s
True Right ascension
15h 44m 48s
True Declination
18° 45' 27"
Sunlit
Object was in full shadow at epoch
Visualization orbit readout
Latitude
Unknown
Longitude
Unknown
Altitude
Unknown
Speed
Unknown
Apparent Right ascension
Unknown
Apparent Declination
Unknown
Sunlit
N/A
Visualization observer readout
Local Sidereal Time
23:34:24
Azimuth
Unknown
Elevation
Unknown
Doppler factor
Unknown
Orbital elements
Apogee altitude
734.696 km
Perigee altitude
709.147 km
Semi-major axis
7,100.058 km
Eccentricity
0.0018
Inclination
74.04°
RAAN
230.623°
Arg. of periapsis
341.8872°
True anomaly
37.75911°
Mean anomaly
37.633°
Eccentric anomaly
37.69603°
Mean motion
3.62786 °/min
Orbital period
99.23 mins
BSTAR
0.00032523

Documentation

Showing up to 5 results
|